Regional Weather Roundup
Issued by NWS

Home | Current Version | Previous Version | Graphics & Text | Print | Product List | Glossary On
Versions: 1 2 3 4 5 6 7 8 9 10 11 12 13 14 15 16 17 18 19 20 21 22 23 24 25 26 27 28 29 30 31 32 33 34 35 36 37 38 39 40 41 42 43 44 45 46 47 48 49 50
000
ASUS43 KMKX 212121
RWRWI

WISCONSIN REGIONAL WEATHER ROUNDUP
NATIONAL WEATHER SERVICE MILWAUKEE/SULLIVAN WI
400 PM CDT MON AUG 21 2017

NOTE: "FAIR" INDICATES FEW OR NO CLOUDS BELOW 12,000 FEET WITH NO
SIGNIFICANT WEATHER AND/OR OBSTRUCTIONS TO VISIBILITY.

WIZ001-002-006>008-014>016-023>028-212200-
NORTHWEST WISCONSIN

CITY           SKY/WX    TMP DP  RH WIND       PRES   REMARKS
SUPERIOR ARPT    N/A     70  60  72 E6        29.90F
ASHLAND        LGT RAIN  66  60  81 E6        29.92F
HAYWARD        LGT RAIN  73  61  65 E5        29.92F
SIREN          CLOUDY    73  64  72 S6        29.92R
CUMBERLAND     CLOUDY    72  64  78 S8        29.94R
RICE LAKE      CLOUDY    73  66  77 SE7       29.94F
CHETEK           N/A     73  69  88 S5        29.92F
LADYSMITH      CLOUDY    76  67  73 CALM      29.95S
EAU CLAIRE     CLOUDY    75  67  76 SW7       29.93S
MENOMONIE      LGT RAIN  73  68  86 S9        29.94F
NEW RICHMOND   CLOUDY    71  64  79 E5        29.90F
OSCEOLA        CLOUDY    73  66  79 SE8       29.93F
$$

WIZ003>005-009-010-017-018-212200-
NORTH CENTRAL WISCONSIN

CITY           SKY/WX    TMP DP  RH WIND       PRES   REMARKS
MANITOWISH WTR CLOUDY    74  61  63 CALM      29.95S
ARBOR VITAE    CLOUDY    77  66  68 SW6       29.95S
WOODRUFF       CLOUDY    77  66  68 SW6       29.95S
RHINELANDER    MOSUNNY   77  66  68 SW6       29.96F
EAGLE RIVER    CLOUDY    75  62  64 S5        29.94F
LAND O LAKES   LGT RAIN  71  66  84 CALM      29.97F
PHILLIPS       CLOUDY    75  65  71 CALM      29.94S
TOMAHAWK         N/A     76  65  69 CALM      29.95S
MEDFORD        CLOUDY    72  67  84 S12       29.97R
MERRILL        DRIZZLE   75  70  83 CALM      29.95S
$$

WIZ029-030-035-036-043>047-212200-
CENTRAL WISCONSIN

CITY           SKY/WX    TMP DP  RH WIND       PRES   REMARKS
WAUSAU         PTSUNNY   74  68  81 S3        29.93F
MOSINEE        LGT RAIN  75  72  88 S5        29.96S
MARSHFIELD     CLOUDY    74  67  78 W7        29.96R
STEVENS POINT  LGT RAIN  77  64  65 SW9       29.96R
WAUPACA        PTSUNNY   82  69  66 S6        29.95F HX  85
WAUTOMA        CLOUDY    80  68  66 SW12      29.96S HX  83
WISC RAPIDS    CLOUDY    79  68  69 SW10      29.97S HX  81
CAMP DOUGLAS   PTSUNNY   77  66  69 S7        29.95R
$$

WIZ011>013-019>022-031-037>040-048>050-212200-
NORTHEAST WISCONSIN

CITY           SKY/WX    TMP DP  RH WIND       PRES   REMARKS
ANTIGO         CLOUDY    75  68  80 S6        29.96F
SHAWANO        CLOUDY    82  69  64 S3        29.93F HX  86
OCONTO         MOSUNNY   79  70  73 S7        29.92F HX  82
STURGEON BAY   MOSUNNY   76  70  82 S10       29.94F
GREEN BAY      CLOUDY    78  70  76 SW7       29.94F HX  80
MANITOWOC        N/A    N/A N/A N/A MISG        N/A
APPLETON       PTSUNNY   79  63  57 S6        29.94F HX  80
CLINTONVILLE   CLOUDY    81  66  61 SW10      29.94F HX  83
OSHKOSH        CLOUDY    80  69  69 S10       29.94F HX  83
$$

WIZ032>034-041-042-053>061-212200-
SOUTHWEST WISCONSIN

CITY           SKY/WX    TMP DP  RH WIND       PRES   REMARKS
LA CROSSE      CLOUDY    78  66  66 S9        29.95R HX  80
SPARTA         CLOUDY    75  65  73 W3        29.96R
VIROQUA        CLOUDY    74  66  76 CALM      29.98R
BOSCOBEL       CLOUDY    82  67  60 S7        29.95R HX  84
PRAIRIE DU CHI CLOUDY    80  65  60 S14       29.95R HX  81
PLATTEVILLE    MOSUNNY   76  70  79 S12       30.00R
$$

WIZ056-057-062-063-064-067-068-212200-
SOUTH CENTRAL WISCONSIN

CITY           SKY/WX    TMP DP  RH WIND       PRES   REMARKS
REEDSBURG      CLOUDY    80  67  64 SW8       29.95R HX  83
BARABOO/DELLS  CLOUDY    79  65  62 SW7       29.95S HX  81
LONE ROCK      CLOUDY    80  67  64 S13       29.94S HX  82
MINERAL POINT  CLOUDY    79  66  65 S12       29.98R HX  81
MADISON        PTSUNNY   79  69  71 S8        29.94F HX  81
MIDDLETON      PTSUNNY   81  66  60 SW9       29.94F HX  83
WATERTOWN      CLOUDY    79  74  83 S6        29.95F HX  82
MONROE         CLOUDY    79  68  69 S10       29.97F HX  81
JANESVILLE     MOSUNNY   81  72  74 S7        29.96F HX  84
$$

WIZ051-052-058>065-066-070>072-212200-
SOUTHEAST WISCONSIN

CITY           SKY/WX    TMP DP  RH WIND       PRES   REMARKS
MILWAUKEE      CLOUDY    81  72  74 S10       29.95F HX  85
WAUKESHA       SUNNY     77  70  78 SE9       29.97F
MILWAUKEE/TIMM MOSUNNY   79  66  65 SE9       29.96F HX  81
RACINE         CLOUDY    80  73  79 S9        29.97F HX  84
KENOSHA        PTSUNNY   82  72  71 S12       29.96F HX  87
FOND DU LAC    CLOUDY    80  68  66 S7        29.94F HX  83
SHEBOYGAN      CLOUDY    78  71  79 SE7       29.95F HX  80
WEST BEND      CLOUDY    79  72  78 SE8       29.95F HX  82
JUNEAU         CLOUDY    77  70  78 S9        29.96F
$$

LSZ147-162-212200-
LAKE SUPERIOR

STATION/POSITION TIME  TEMP    WIND        PRES    WAVE
                       AIR SEA DIR/SP/G            HT/PER
                 (UTC) (F)     (DEG/KT/KT) (MB)    (FT/S)
W MID LAKE BUOY  2050   62 61  100/  4/  4 1013.4F   0
DEVILS ISLAND    2100   63      90/  6/  7 1013.6F
PORT WING        2020   71      90/  3/ 13 1013.2F
SAXON HARBOR     2030   67      20/  5/  6 1013.2F
$$

LMZ867-665-643>646-212200-
LAKE MICHIGAN

STATION/POSITION TIME  TEMP    WIND        PRES    WAVE
                       AIR SEA DIR/SP/G            HT/PER
                 (UTC) (F)     (DEG/KT/KT) (MB)    (FT/S)
S GREEN BAY BUOY 2100   74 75   30/  2/  2 1013.3
N MID LAKE BUOY  2050   69 69  170/  8/ 10 1014.3F   1
NORTHPORT PIER   2040   71     130/  7/  8 1013.5F
KEWAUNEE LAKESHO 2054   70     180/ 11/ 12 1013.0F
SHEBOYGAN LAKESH 2100   72     170/ 11/ 12 1013.6F
PORT WASHINGTON  2030   77     190/  6/  9 1015.6S
ATWATER BUOY     2009   72 70  170/ 10/ 10 1015.5R
MILWAUKEE LAKESH 2100   72     140/ 11/ 12   N/A
S MID LAKE BUOY  2050   73 72  100/  8/  8 1014.7F   1/ 4
KENOSHA   LAKESH 2100   76     160/  8/ 10 1013.9
$$

TC  - TEMPERATURE IN CELSIUS
VSB - VISIBILITY IN STATUTE MILES
WCI - WIND CHILL INDEX
HX  - HEAT INDEX




USA.gov is the U.S. government's official web portal to all federal, state and local government web resources and services.